Accueil
METAR-TAF:

METAR-TAF

Aéroports :

Aéroport de Flores

Flores, Açores, Portugal

latitude: 39-27N, longitude: 031-08W, altitude: 28 m

Observation

Le bulletin a été fait il y a 10 heures et 26 minutes, à 18:00 UTC
Vent 4 kt de nord
Température 16°C
Humidité 88%
Pression 992 hPa
Visibilité 10 km ou plus
Quelques nuages à une hauteur de 1000 ft
Nuages épars à une hauteur de 1600 ft
Nuages fragmentés à une hauteur de 3000 ft

METAR: LPFL 021800Z 35004KT 9999 FEW010 SCT016 BKN030 16/14 Q0992

Heure: 04:26 (04:26 UTC)


TAF: absent

Observations et prévisions météorologiques de plus de 4000 aéroports (messages METAR et TAF).

Les stations disponibles sont représentées par des disques jaunes et rouges sur la carte.

Passer la souris dessus pour voir le nom de la station.

Cliquer dessus pour voir les observations et prévisions météorologiques.

Pour changer de carte: cliquez sur les boutons verts avec une croix noire pour zoomer, sur le bouton vert avec un tiret pour effectuer un zoom arrière, ou sur les flèches vertes pour les cartes adjacentes.


METAR-TAF: